Location: *
(2.5500°S, 65.9667°W)
Time: 17:44:06
(UTC+00:00)

Vanguard 2 Rocket - Visible Passes

Search period start: 19 April 2024 00:00
Search period end: 29 April 2024 00:00
Orbit: 555 x 3307 km, 32.9° (Epoch: 19 April)

Date Brightness Start Highest point End Pass type
(mag) Time Alt. Az. Time Alt. Az. Time Alt. Az.
19 Apr 10.5 01:40:30 10° WNW 01:53:01 27° NNW 02:08:29 10° NNE visible
19 Apr 10.9 04:06:57 10° NW 04:16:49 15° N 04:26:20 10° NNE visible
19 Apr 10.6 06:30:40 10° NNW 06:40:59 17° NNE 06:49:13 10° NE visible
19 Apr 9.5 08:47:49 10° NW 09:00:26 36° NNE 09:08:09 10° E visible
19 Apr 8.8 22:20:35 10° WSW 22:29:47 79° NW 22:46:17 10° NE visible
20 Apr 10.2 00:36:02 10° W 00:47:44 34° NNW 01:04:07 10° NNE visible
20 Apr 10.9 02:59:12 10° NW 03:10:04 17° NNW 03:21:33 10° NNE visible
20 Apr 10.8 05:25:03 10° NNW 05:35:05 16° N 05:43:48 10° NE visible
20 Apr 10.0 07:43:23 10° NNW 07:56:29 28° NNE 08:05:16 10° ENE visible
20 Apr 8.2 10:00:38 10° NW 10:13:14 75° NE 10:20:05 10° ESE visible
20 Apr 9.8 23:32:42 10° W 23:43:06 43° NNW 23:59:32 10° NE visible
21 Apr 10.7 01:52:34 10° WNW 02:03:43 21° NNW 02:16:51 10° NNE visible
21 Apr 10.9 04:18:42 10° NNW 04:28:29 15° N 04:37:44 10° NNE visible
21 Apr 10.4 06:38:45 10° NNW 06:51:47 23° NNE 07:01:27 10° ENE visible
21 Apr 8.9 08:55:59 10° NW 09:10:15 53° NNE 09:18:22 10° ESE visible
21 Apr 9.2 22:30:14 10° WSW 22:39:12 56° NNW 22:54:49 10° NE visible
22 Apr 10.5 00:47:21 10° WNW 00:58:02 25° NNW 01:12:11 10° NNE visible
22 Apr 11.0 03:11:52 10° NW 03:21:34 15° N 03:31:33 10° NNE visible
22 Apr 10.7 05:33:53 10° NNW 05:46:16 20° NNE 05:56:29 10° NE visible
22 Apr 9.6 07:51:20 10° NW 08:06:33 40° NNE 08:15:59 10° E visible
22 Apr 10.2 23:43:21 10° W 23:53:06 31° NNW 00:07:33 10° NNE visible
23 Apr 10.9 02:05:13 10° NW 02:14:51 17° N 02:25:43 10° NNE visible
23 Apr 10.9 04:28:46 10° NNW 04:40:00 17° N 04:50:16 10° NE visible
23 Apr 10.1 06:46:43 10° NNW 07:02:08 32° NNE 07:12:48 10° E visible
23 Apr 8.5 09:04:28 10° NW 09:19:41 77° NE 09:28:01 10° ESE visible
23 Apr 9.7 22:40:20 10° W 22:48:54 39° NNW 23:02:58 10° NE visible
24 Apr 10.7 00:59:25 10° NW 01:08:45 19° NNW 01:20:21 10° NNE visible
24 Apr 11.0 03:23:21 10° NNW 03:33:12 15° N 03:43:05 10° NE visible
24 Apr 10.4 05:42:10 10° NNW 05:56:58 26° NNE 06:08:32 10° ENE visible
24 Apr 9.1 07:59:30 10° NW 08:16:14 57° NNE 08:26:04 10° ESE visible
24 Apr 10.5 23:54:42 10° WNW 00:03:27 22° NNW 00:15:24 10° NNE visible
25 Apr 11.0 02:17:43 10° NNW 02:26:19 15° N 02:35:41 10° NNE visible
25 Apr 10.7 04:37:41 10° NNW 04:51:06 21° NNE 05:02:55 10° ENE visible
25 Apr 9.7 06:54:45 10° NW 07:12:04 44° NNE 07:23:24 10° E visible
25 Apr 8.3 09:13:21 10° WNW 09:28:46 75° SW 09:37:16 10° SE visible
25 Apr 10.2 22:51:02 10° WNW 22:58:56 27° NNW 23:10:48 10° NNE visible
26 Apr 10.9 01:12:04 10° NW 01:19:51 15° N 01:28:56 10° NNE visible
26 Apr 10.9 03:33:18 10° NNW 03:44:38 17° NNE 03:55:45 10° NE visible
26 Apr 10.1 05:50:14 10° NNW 06:07:11 34° NNE 06:19:48 10° E visible
26 Apr 8.7 08:07:57 10° NW 08:25:33 79° NE 08:35:39 10° ESE visible
27 Apr 10.7 00:06:55 10° NW 00:14:08 16° N 00:23:12 10° NNE visible
27 Apr 10.9 02:28:58 10° NNW 02:37:52 15° N 02:47:21 10° NE visible
27 Apr 10.5 04:46:02 10° NNW 05:05:24 26° NE 05:14:56 10° ENE visible
27 Apr 9.3 07:11:20 30° NNW 07:21:35 60° NNE 07:33:23 10° ESE visible
27 Apr 8.6 09:22:44 10° WNW 09:37:36 53° SW 09:46:11 10° SE visible
27 Apr 10.5 23:02:33 10° NW 23:09:16 18° NNW 23:18:20 10° NNE visible
28 Apr 10.9 01:24:35 10° NNW 01:31:13 13° N 01:38:39 10° NNE visible
28 Apr 10.7 03:42:09 10° NNW 04:09:55 - ENE 03:54:47 21° NNE visible
28 Apr 9.7 05:58:18 10° NW 06:16:57 46° NNE 06:30:18 10° E visible
28 Apr 8.6 08:21:34 21° WNW 08:34:31 78° SW 08:44:50 10° SE visible
